COSMOS 2251 DEB, 35837

Orbit data source: Space-Track

COSMOS 2251 DEB, 35837 is space debris in LEO originally from a launch on Wed, 16 Jun 1993 UTC launched from the Plesetsk Missile And Space Complex (PKMTR). The debris from Iridium 33, an American commercial communications satellite, has been tracked extensively since its accidental collision with the defunct Russian satellite Cosmos 2251 in 2009. This event, occurring at high speed in low Earth orbit (LEO), generated thousands of pieces of space debris, significantly increasing the risk of further collisions. The Iridium 33 debris cloud has impacted space traffic management and orbital debris mitigation strategies, making it a subject of ongoing study in space situational awareness.

Loading next visibility...
Identifier
35837, 1993-036ATK
Orbit
LEO
Country
Flag of CISCIS
Related business
Manufacturer
Unknown
Mission
Spacecraft
Bus & Motor
Unknown
Mass
Unknown
Launch date (UTC)
1993-06-16 (33 years ago)
Launch vehicle
Unknown
Launch site
Plesetsk Missile And Space Complex (PKMTR)
Object type
Payload
Rocket body
Debris
Shape & HBR
Unknown shape, 0.1 m
Radar Cross Section
Small (<0.1 m²)

Expand to show TLE details & history
Last TLE update: 16 hours ago

TLE from 16 hours ago
0 COSMOS 2251 DEB
1 35837U 93036ATK 26123.33733490  .00003933  00000-0  27529-2 0  9998
2 35837  73.7284 331.7879 0411174 230.8376 312.3595 13.64823091599079
Epoch: 2026-05-03T08:05Z
TLE epoch observation values (Epoch: 2026-05-03T08:05:45.735Z)
Latitude
0.28415°
Longitude
169.02251°
Altitude
822.876 km
Speed
7.541 km/s
True Right ascension
10h 06m 49s
True Declination
0° 16' 57"
Sunlit
Object was in daylight at epoch
Visualization orbit readout
Latitude
Unknown
Longitude
Unknown
Altitude
Unknown
Speed
Unknown
Apparent Right ascension
Unknown
Apparent Declination
Unknown
Sunlit
N/A
Visualization observer readout
Local Sidereal Time
07:38:19
Azimuth
Unknown
Elevation
Unknown
Doppler factor
Unknown
Orbital elements
Apogee altitude
1,319.964 km
Perigee altitude
711.914 km
Semi-major axis
7,394.076 km
Eccentricity
0.04112
Inclination
73.7284°
RAAN
331.7879°
Arg. of periapsis
230.8376°
True anomaly
308.75555°
Mean anomaly
312.3595°
Eccentric anomaly
310.56996°
Mean motion
3.41364 °/min
Orbital period
105.46 mins
BSTAR
0.0027529
Loading maneuver chart data...
Computing Atmospheric mass density...

Documentation

Showing up to 5 results
|